QPF
0.04 0.06 0.06 0.06 0.08 0.08 0.08 0.08 0.10 0.10 0.08 0.05 0.04 0.03 0.04 0.05 0.06 0.05 0.03 0.03 0.04 0.04 0.04 0.04 0.04 0.03 0.02 0.02 0.02 0.02 0.02 0.02 0.02 0.02 0.02 0.02 0.03 0.04
0.04 0.05 0.05 0.06 0.07 0.08 0.09 0.08 0.09 0.10 0.09 0.05 0.04 0.03 0.04 0.05 0.06 0.06 0.05 0.04 0.04 0.04 0.05 0.05 0.04 0.04 0.03 0.03 0.02 0.02 0.01 0.01 0.02 0.02 0.02 0.03 0.03 0.03
0.04 0.05 0.05 0.05 0.05 0.05 0.06 0.06 0.06 0.07 0.07 0.05 0.03 0.03 0.05 0.05 0.05 0.06 0.06 0.06 0.05 0.04 0.04 0.04 0.04 0.04 0.03 0.03 0.03 0.02 0.02 0.02 0.02 0.02 0.02 0.03 0.03 0.03
0.06 0.05 0.05 0.05 0.05 0.05 0.06 0.06 0.05 0.04 0.05 0.05 0.04 0.04 0.04 0.04 0.04 0.05 0.06 0.06 0.05 0.05 0.04 0.04 0.04 0.03 0.03 0.03 0.03 0.03 0.02 0.02 0.02 0.02 0.02 0.03 0.03 0.04
0.05 0.05 0.04 0.04 0.05 0.05 0.06 0.06 0.06 0.05 0.04 0.04 0.04 0.04 0.04 0.04 0.05 0.06 0.06 0.06 0.06 0.06 0.04 0.03 0.03 0.03 0.03 0.03 0.03 0.03 0.02 0.02 0.02 0.02 0.02 0.02 0.03 0.03
0.06 0.05 0.05 0.04 0.03 0.03 0.04 0.05 0.06 0.06 0.06 0.06 0.06 0.06 0.05 0.05 0.06 0.08 0.07 0.06 0.06 0.06 0.05 0.04 0.03 0.03 0.03 0.03 0.03 0.03 0.03 0.02 0.02 0.02 0.02 0.02 0.03 0.03
0.08 0.07 0.05 0.05 0.04 0.03 0.04 0.04 0.06 0.06 0.06 0.07 0.08 0.08 0.07 0.07 0.07 0.07 0.07 0.06 0.06 0.05 0.05 0.04 0.03 0.03 0.03 0.03 0.03 0.03 0.03 0.02 0.02 0.02 0.02 0.02 0.03 0.03
0.07 0.05 0.05 0.04 0.03 0.04 0.04 0.05 0.05 0.06 0.06 0.07 0.07 0.07 0.06 0.05 0.05 0.05 0.06 0.07 0.08 0.06 0.04 0.03 0.03 0.03 0.03 0.03 0.03 0.03 0.03 0.03 0.02 0.02 0.02 0.02 0.03 0.03
0.06 0.04 0.03 0.03 0.03 0.03 0.03 0.04 0.04 0.04 0.05 0.06 0.06 0.06 0.05 0.05 0.06 0.07 0.05 0.04 0.04 0.04 0.04 0.04 0.04 0.03 0.02 0.02 0.02 0.02 0.03 0.03 0.03 0.02 0.02 0.03 0.03 0.03
0.07 0.06 0.04 0.03 0.03 0.03 0.04 0.05 0.04 0.04 0.05 0.06 0.05 0.05 0.05 0.05 0.07 0.08 0.07 0.07 0.06 0.05 0.04 0.04 0.04 0.03 0.02 0.02 0.02 0.02 0.02 0.03 0.03 0.03 0.03 0.03 0.04 0.04
0.10 0.09 0.07 0.05 0.04 0.04 0.05 0.05 0.05 0.05 0.06 0.07 0.07 0.07 0.07 0.08 0.10 0.12 0.10 0.10 0.08 0.07 0.05 0.03 0.02 0.02 0.02 0.02 0.02 0.03 0.02 0.02 0.03 0.04 0.04 0.04 0.04 0.05
0.10 0.11 0.11 0.08 0.07 0.06 0.06 0.06 0.07 0.06 0.05 0.07 0.09 0.10 0.10 0.11 0.11 0.10 0.09 0.08 0.07 0.06 0.04 0.03 0.02 0.02 0.02 0.02 0.02 0.02 0.02 0.02 0.03 0.03 0.04 0.04 0.04 0.05
0.08 0.10 0.11 0.11 0.10 0.08 0.08 0.08 0.07 0.06 0.06 0.07 0.09 0.10 0.10 0.12 0.12 0.10 0.09 0.08 0.07 0.05 0.04 0.03 0.03 0.03 0.03 0.03 0.02 0.02 0.02 0.02 0.02 0.02 0.03 0.03 0.03 0.04
0.06 0.07 0.09 0.11 0.10 0.08 0.08 0.10 0.10 0.09 0.09 0.11 0.10 0.09 0.10 0.10 0.10 0.10 0.10 0.08 0.07 0.06 0.05 0.04 0.04 0.04 0.04 0.03 0.03 0.02 0.03 0.02 0.02 0.02 0.03 0.03 0.03 0.04
0.05 0.06 0.07 0.09 0.09 0.08 0.08 0.09 0.10 0.10 0.11 0.11 0.10 0.10 0.09 0.08 0.07 0.08 0.09 0.08 0.08 0.07 0.06 0.05 0.06 0.05 0.05 0.05 0.04 0.03 0.03 0.03 0.02 0.02 0.03 0.03 0.03 0.04
0.04 0.06 0.07 0.08 0.09 0.09 0.09 0.09 0.10 0.10 0.10 0.10 0.09 0.09 0.09 0.08 0.08 0.07 0.07 0.07 0.06 0.06 0.06 0.05 0.05 0.05 0.05 0.05 0.05 0.05 0.04 0.04 0.04 0.03 0.04 0.04 0.04 0.04
0.06 0.07 0.08 0.09 0.11 0.11 0.11 0.12 0.12 0.12 0.11 0.09 0.09 0.10 0.11 0.10 0.08 0.07 0.06 0.06 0.06 0.05 0.05 0.04 0.05 0.04 0.04 0.05 0.05 0.05 0.05 0.05 0.04 0.04 0.04 0.05 0.06 0.06
0.07 0.08 0.08 0.09 0.11 0.10 0.11 0.12 0.12 0.12 0.11 0.09 0.10 0.10 0.10 0.10 0.08 0.06 0.05 0.05 0.05 0.05 0.04 0.04 0.05 0.06 0.06 0.06 0.05 0.04 0.04 0.04 0.05 0.04 0.04 0.05 0.07 0.08
0.05 0.07 0.07 0.08 0.09 0.09 0.09 0.10 0.11 0.11 0.10 0.11 0.10 0.09 0.08 0.08 0.08 0.07 0.06 0.05 0.05 0.05 0.05 0.04 0.05 0.06 0.07 0.06 0.06 0.05 0.04 0.04 0.06 0.06 0.05 0.05 0.07 0.09
0.04 0.04 0.05 0.06 0.08 0.09 0.09 0.09 0.09 0.10 0.10 0.10 0.09 0.08 0.07 0.08 0.08 0.07 0.06 0.05 0.05 0.05 0.06 0.05 0.05 0.05 0.06 0.06 0.07 0.06 0.05 0.05 0.06 0.07 0.07 0.06 0.08 0.08
0.05 0.04 0.05 0.06 0.07 0.08 0.09 0.10 0.10 0.09 0.09 0.09 0.09 0.09 0.08 0.08 0.08 0.07 0.06 0.06 0.06 0.05 0.05 0.05 0.05 0.06 0.05 0.05 0.06 0.07 0.07 0.07 0.06 0.05 0.05 0.06 0.06 0.06
0.05 0.05 0.06 0.06 0.07 0.08 0.09 0.11 0.10 0.09 0.08 0.08 0.09 0.09 0.09 0.10 0.09 0.07 0.07 0.07 0.06 0.05 0.06 0.06 0.07 0.07 0.06 0.06 0.06 0.07 0.07 0.09 0.09 0.08 0.06 0.04 0.04 0.05
0.04 0.05 0.05 0.06 0.07 0.07 0.08 0.10 0.09 0.09 0.09 0.09 0.09 0.08 0.09 0.09 0.08 0.07 0.07 0.06 0.06 0.06 0.07 0.07 0.08 0.08 0.08 0.07 0.07 0.07 0.07 0.08 0.08 0.09 0.07 0.05 0.04 0.04
MSLP
1011.99 1012.26 1012.50 1012.70 1012.87 1013.01 1013.11 1013.18 1013.22 1013.21 1013.16 1013.06 1012.91 1012.71 1012.46 1012.16 1011.81 1011.44 1011.03 1010.61 1010.16 1009.71 1009.25 1008.80 1008.36 1007.94 1007.55 1007.20 1006.90 1006.63 1006.40 1006.20 1006.00 1005.81 1005.61 1005.40 1005.21 1005.06
1011.25 1011.54 1011.81 1012.05 1012.27 1012.47 1012.65 1012.80 1012.92 1013.00 1013.02 1012.99 1012.89 1012.71 1012.47 1012.15 1011.78 1011.35 1010.89 1010.40 1009.89 1009.38 1008.87 1008.37 1007.88 1007.42 1007.00 1006.62 1006.27 1005.97 1005.69 1005.43 1005.17 1004.91 1004.64 1004.37 1004.12 1003.90
1010.69 1011.01 1011.31 1011.60 1011.87 1012.13 1012.37 1012.59 1012.78 1012.92 1013.01 1013.03 1012.96 1012.80 1012.56 1012.22 1011.81 1011.34 1010.82 1010.27 1009.71 1009.14 1008.57 1008.02 1007.49 1006.98 1006.51 1006.08 1005.67 1005.30 1004.96 1004.62 1004.29 1003.95 1003.61 1003.27 1002.96 1002.71
1010.36 1010.71 1011.05 1011.37 1011.69 1011.99 1012.28 1012.55 1012.78 1012.97 1013.09 1013.13 1013.08 1012.92 1012.66 1012.31 1011.87 1011.35 1010.79 1010.20 1009.58 1008.97 1008.35 1007.76 1007.18 1006.62 1006.08 1005.58 1005.10 1004.64 1004.20 1003.78 1003.35 1002.93 1002.52 1002.13 1001.78 1001.51
1010.25 1010.63 1010.99 1011.35 1011.69 1012.01 1012.32 1012.60 1012.85 1013.04 1013.17 1013.21 1013.15 1012.98 1012.71 1012.34 1011.87 1011.34 1010.75 1010.13 1009.49 1008.84 1008.20 1007.56 1006.93 1006.32 1005.71 1005.12 1004.55 1003.99 1003.45 1002.92 1002.40 1001.91 1001.44 1001.01 1000.65 1000.39
1010.29 1010.69 1011.07 1011.43 1011.77 1012.08 1012.38 1012.65 1012.87 1013.05 1013.15 1013.18 1013.10 1012.92 1012.64 1012.26 1011.79 1011.26 1010.67 1010.05 1009.41 1008.76 1008.10 1007.43 1006.76 1006.08 1005.40 1004.72 1004.04 1003.37 1002.72 1002.09 1001.49 1000.93 1000.42 999.99 999.64 999.43
1010.41 1010.80 1011.16 1011.50 1011.81 1012.10 1012.35 1012.58 1012.76 1012.90 1012.97 1012.97 1012.88 1012.69 1012.41 1012.05 1011.60 1011.10 1010.54 1009.95 1009.33 1008.69 1008.03 1007.35 1006.64 1005.91 1005.15 1004.38 1003.60 1002.83 1002.08 1001.36 1000.69 1000.09 999.57 999.15 998.85 998.71
1010.48 1010.85 1011.17 1011.47 1011.73 1011.95 1012.15 1012.32 1012.45 1012.55 1012.59 1012.56 1012.47 1012.29 1012.04 1011.71 1011.32 1010.87 1010.37 1009.83 1009.26 1008.65 1008.00 1007.31 1006.58 1005.80 1004.97 1004.12 1003.25 1002.39 1001.56 1000.77 1000.06 999.44 998.94 998.57 998.35 998.30
1010.45 1010.76 1011.03 1011.26 1011.46 1011.62 1011.76 1011.87 1011.95 1012.01 1012.02 1012.00 1011.91 1011.77 1011.57 1011.30 1010.98 1010.60 1010.17 1009.71 1009.19 1008.62 1008.00 1007.32 1006.56 1005.75 1004.88 1003.96 1003.02 1002.10 1001.21 1000.39 999.66 999.06 998.60 998.30 998.17 998.23
1010.27 1010.52 1010.72 1010.89 1011.01 1011.11 1011.19 1011.25 1011.30 1011.34 1011.36 1011.34 1011.29 1011.20 1011.05 1010.86 1010.62 1010.32 1009.97 1009.57 1009.12 1008.60 1008.01 1007.34 1006.58 1005.75 1004.85 1003.89 1002.92 1001.96 1001.05 1000.23 999.52 998.96 998.57 998.36 998.34 998.51
1009.96 1010.14 1010.28 1010.39 1010.46 1010.51 1010.55 1010.59 1010.62 1010.66 1010.69 1010.70 1010.69 1010.65 1010.58 1010.45 1010.28 1010.05 1009.77 1009.43 1009.03 1008.55 1007.99 1007.34 1006.60 1005.77 1004.87 1003.91 1002.94 1001.99 1001.09 1000.30 999.64 999.15 998.84 998.73 998.82 999.10
1009.56 1009.69 1009.79 1009.85 1009.89 1009.92 1009.94 1009.97 1010.01 1010.06 1010.11 1010.16 1010.20 1010.20 1010.17 1010.10 1009.97 1009.80 1009.56 1009.26 1008.89 1008.45 1007.92 1007.30 1006.58 1005.78 1004.91 1003.99 1003.05 1002.14 1001.30 1000.57 999.99 999.58 999.36 999.35 999.54 999.91
1009.14 1009.24 1009.31 1009.36 1009.39 1009.42 1009.44 1009.48 1009.54 1009.61 1009.69 1009.77 1009.83 1009.86 1009.86 1009.80 1009.70 1009.53 1009.31 1009.03 1008.68 1008.25 1007.75 1007.17 1006.50 1005.75 1004.94 1004.09 1003.23 1002.40 1001.64 1000.99 1000.50 1000.18 1000.06 1000.14 1000.41 1000.85
1008.73 1008.83 1008.92 1008.97 1009.02 1009.06 1009.11 1009.17 1009.25 1009.34 1009.44 1009.53 1009.59 1009.63 1009.61 1009.54 1009.42 1009.23 1009.00 1008.70 1008.35 1007.94 1007.47 1006.93 1006.32 1005.65 1004.93 1004.18 1003.42 1002.70 1002.05 1001.51 1001.11 1000.88 1000.84 1000.99 1001.32 1001.81
1008.36 1008.50 1008.61 1008.70 1008.78 1008.85 1008.93 1009.02 1009.12 1009.22 1009.32 1009.40 1009.45 1009.45 1009.39 1009.28 1009.11 1008.88 1008.60 1008.28 1007.92 1007.51 1007.07 1006.59 1006.05 1005.48 1004.87 1004.24 1003.61 1003.01 1002.48 1002.05 1001.75 1001.60 1001.63 1001.83 1002.20 1002.71
1008.05 1008.23 1008.39 1008.52 1008.64 1008.74 1008.85 1008.96 1009.07 1009.17 1009.26 1009.31 1009.32 1009.27 1009.15 1008.98 1008.74 1008.45 1008.12 1007.77 1007.39 1007.00 1006.59 1006.16 1005.72 1005.25 1004.77 1004.27 1003.77 1003.31 1002.90 1002.57 1002.36 1002.28 1002.36 1002.59 1002.97 1003.48
1007.78 1008.00 1008.20 1008.38 1008.53 1008.67 1008.80 1008.92 1009.03 1009.13 1009.19 1009.20 1009.16 1009.05 1008.87 1008.63 1008.32 1007.98 1007.60 1007.21 1006.82 1006.44 1006.08 1005.72 1005.36 1005.00 1004.64 1004.27 1003.91 1003.57 1003.28 1003.05 1002.91 1002.89 1002.99 1003.24 1003.61 1004.09
1007.53 1007.78 1008.01 1008.21 1008.39 1008.55 1008.69 1008.82 1008.93 1009.00 1009.04 1009.02 1008.93 1008.77 1008.53 1008.23 1007.88 1007.48 1007.08 1006.67 1006.28 1005.93 1005.60 1005.30 1005.03 1004.77 1004.52 1004.27 1004.03 1003.80 1003.61 1003.46 1003.39 1003.41 1003.53 1003.77 1004.12 1004.57
1007.27 1007.54 1007.78 1007.99 1008.18 1008.35 1008.49 1008.62 1008.71 1008.77 1008.78 1008.74 1008.62 1008.42 1008.15 1007.82 1007.43 1007.02 1006.60 1006.20 1005.83 1005.50 1005.22 1004.98 1004.78 1004.61 1004.45 1004.30 1004.15 1004.02 1003.90 1003.83 1003.80 1003.85 1003.99 1004.22 1004.54 1004.95
1007.00 1007.26 1007.49 1007.69 1007.88 1008.04 1008.17 1008.29 1008.38 1008.43 1008.43 1008.37 1008.23 1008.03 1007.75 1007.41 1007.03 1006.63 1006.22 1005.84 1005.49 1005.20 1004.96 1004.78 1004.63 1004.53 1004.44 1004.36 1004.29 1004.23 1004.18 1004.16 1004.18 1004.26 1004.40 1004.63 1004.93 1005.31
1006.71 1006.94 1007.14 1007.32 1007.48 1007.63 1007.76 1007.86 1007.95 1007.99 1007.99 1007.93 1007.80 1007.61 1007.35 1007.03 1006.68 1006.31 1005.93 1005.59 1005.28 1005.03 1004.83 1004.69 1004.60 1004.54 1004.50 1004.48 1004.47 1004.46 1004.46 1004.49 1004.55 1004.65 1004.81 1005.04 1005.34 1005.69
1006.38 1006.56 1006.73 1006.88 1007.02 1007.15 1007.27 1007.37 1007.45 1007.49 1007.50 1007.45 1007.35 1007.18 1006.95 1006.67 1006.36 1006.04 1005.72 1005.42 1005.16 1004.95 1004.80 1004.69 1004.64 1004.62 1004.62 1004.64 1004.67 1004.71 1004.75 1004.82 1004.92 1005.06 1005.25 1005.49 1005.79 1006.14
1006.00 1006.14 1006.27 1006.40 1006.52 1006.63 1006.74 1006.83 1006.91 1006.96 1006.98 1006.95 1006.86 1006.73 1006.54 1006.31 1006.05 1005.78 1005.51 1005.27 1005.07 1004.91 1004.79 1004.73 1004.71 1004.72 1004.76 1004.82 1004.88 1004.96 1005.06 1005.17 1005.31 1005.49 1005.72 1005.99 1006.30 1006.66
Thickness
5550 5550 5551 5553 5553 5553 5554 5555 5556 5561 5570 5574 5576 5580 5581 5582 5583 5583 5583 5583 5582 5582 5581 5580 5578 5576 5574 5571 5569 5566 5564 5560 5557 5554 5551 5548 5545 5542
5539 5539 5540 5541 5542 5542 5543 5544 5545 5548 5556 5564 5565 5568 5569 5570 5571 5572 5573 5573 5574 5573 5572 5571 5570 5568 5567 5564 5562 5559 5556 5553 5550 5547 5544 5541 5538 5535
5529 5529 5530 5530 5531 5531 5531 5533 5534 5536 5540 5549 5552 5555 5556 5557 5559 5560 5561 5563 5564 5564 5563 5562 5561 5560 5558 5556 5554 5551 5549 5545 5542 5539 5536 5534 5531 5528
5519 5519 5520 5519 5520 5520 5520 5521 5523 5525 5526 5533 5538 5540 5543 5546 5547 5548 5550 5552 5553 5554 5553 5553 5552 5551 5549 5547 5545 5543 5541 5538 5535 5532 5529 5527 5524 5521
5509 5509 5510 5509 5510 5509 5509 5511 5512 5515 5517 5520 5526 5529 5531 5533 5534 5536 5538 5539 5541 5542 5543 5543 5542 5541 5540 5538 5535 5534 5532 5530 5528 5525 5522 5519 5517 5514
5498 5499 5500 5500 5501 5501 5500 5501 5502 5504 5506 5508 5512 5517 5519 5521 5522 5524 5527 5528 5530 5532 5532 5533 5532 5531 5530 5528 5527 5526 5524 5522 5520 5517 5514 5512 5510 5507
5488 5488 5489 5491 5493 5493 5493 5494 5494 5495 5497 5499 5502 5505 5508 5510 5513 5515 5516 5518 5519 5521 5521 5523 5522 5521 5519 5518 5517 5517 5515 5514 5512 5509 5507 5505 5503 5501
5478 5479 5480 5482 5484 5485 5487 5487 5488 5489 5490 5492 5495 5498 5502 5504 5506 5506 5505 5506 5509 5512 5510 5511 5510 5510 5510 5509 5509 5507 5506 5505 5504 5501 5500 5498 5497 5495
5469 5470 5472 5474 5475 5477 5479 5481 5482 5484 5487 5488 5490 5494 5496 5498 5498 5498 5499 5500 5502 5502 5499 5501 5500 5500 5501 5501 5500 5499 5498 5497 5496 5494 5493 5492 5490 5489
5460 5462 5464 5466 5468 5469 5471 5473 5476 5479 5482 5483 5486 5490 5491 5492 5492 5492 5493 5491 5491 5490 5490 5490 5491 5490 5492 5492 5492 5492 5491 5490 5489 5487 5486 5485 5484 5482
5453 5455 5456 5459 5463 5464 5464 5467 5471 5474 5476 5477 5480 5482 5484 5485 5484 5482 5482 5481 5482 5482 5481 5481 5481 5480 5481 5483 5485 5485 5484 5484 5482 5481 5480 5479 5477 5475
5447 5449 5451 5454 5457 5458 5459 5461 5465 5468 5469 5470 5472 5474 5476 5477 5477 5477 5478 5477 5476 5475 5475 5473 5472 5470 5472 5476 5476 5476 5476 5476 5475 5474 5473 5472 5470 5467
5439 5443 5446 5449 5451 5452 5454 5457 5461 5462 5463 5464 5465 5467 5468 5470 5470 5471 5472 5473 5473 5472 5471 5467 5465 5463 5463 5465 5467 5468 5468 5468 5467 5467 5466 5465 5463 5460
5433 5436 5440 5443 5445 5448 5450 5453 5454 5455 5456 5457 5459 5460 5462 5463 5464 5464 5465 5466 5467 5468 5467 5464 5461 5459 5456 5456 5459 5461 5460 5460 5459 5459 5459 5457 5455 5454
5427 5431 5435 5437 5440 5442 5444 5446 5447 5448 5449 5451 5453 5455 5456 5457 5457 5456 5456 5457 5458 5458 5459 5458 5457 5454 5452 5453 5453 5453 5452 5452 5452 5452 5451 5449 5448 5446
5420 5424 5428 5431 5433 5435 5437 5439 5441 5443 5445 5446 5447 5448 5448 5449 5449 5450 5450 5450 5449 5449 5449 5450 5450 5449 5447 5446 5446 5446 5446 5445 5445 5445 5443 5442 5442 5440
5414 5417 5420 5422 5425 5427 5430 5432 5435 5436 5437 5439 5440 5440 5441 5441 5442 5443 5443 5444 5444 5444 5442 5441 5440 5440 5440 5439 5439 5440 5440 5439 5439 5437 5435 5435 5435 5434
5408 5409 5412 5414 5417 5420 5423 5426 5428 5430 5432 5433 5434 5435 5435 5435 5436 5437 5437 5438 5438 5439 5438 5435 5433 5432 5431 5431 5433 5434 5434 5432 5431 5430 5429 5428 5428 5426
5400 5402 5404 5407 5410 5413 5416 5419 5422 5424 5426 5427 5429 5429 5430 5430 5431 5431 5432 5432 5432 5433 5432 5431 5430 5430 5432 5432 5428 5428 5428 5426 5425 5423 5422 5422 5421 5420
5392 5394 5397 5400 5403 5406 5409 5412 5414 5417 5419 5421 5422 5423 5424 5425 5426 5426 5427 5428 5428 5428 5427 5426 5426 5427 5430 5430 5426 5422 5422 5422 5420 5418 5415 5413 5412 5412
5385 5387 5390 5392 5396 5399 5402 5405 5408 5411 5413 5415 5417 5418 5419 5420 5421 5422 5422 5422 5423 5423 5424 5423 5423 5423 5422 5420 5418 5417 5415 5415 5416 5413 5411 5408 5406 5405
5378 5380 5383 5386 5389 5392 5395 5399 5401 5404 5406 5409 5411 5413 5414 5416 5417 5418 5418 5418 5419 5419 5419 5417 5415 5415 5415 5416 5414 5411 5408 5407 5406 5406 5405 5406 5404 5402
5371 5374 5377 5380 5383 5386 5389 5393 5396 5398 5401 5405 5406 5408 5409 5411 5413 5414 5414 5414 5414 5413 5412 5410 5409 5409 5409 5409 5407 5404 5401 5400 5399 5398 5397 5398 5400 5400